Home   Weather   Bahawalpur   Past weeks
Flag for Pakistan

Past Weather in Bahawalpur, Pakistan — Yesterday and Last 2 Weeks

Now
64 °F

Passing clouds.


Feels Like: 64 °F
Forecast: 84 / 65 °F
Wind: No wind

Location: Multan Airport

Current Time: Mar 22, 2019 at 5:30:01 am

Latest Report: Mar 22, 2019 at 5:00 am


Visibility: 2 mi

Pressure: 29.95 "Hg

Humidity: 78%

Dew Point: 57 °F

Location of BahawalpurLocation

Past Weather in Bahawalpur — Graph

°F

Bahawalpur Temperature Yesterday

Maximum temperature yesterday: 82 °F (at 3:00 pm)
Minimum temperature yesterday: 59 °F (at 7:00 am)
Average temperature yesterday: 73 °F

High & Low Weather Summary for the Past Weeks

 TemperatureHumidityPressure
High84 °F (Mar 17, 2:55 pm)94% (Mar 9, 4:00 am)30.18 "Hg (Mar 9, 4:00 am)
Low52 °F (Mar 9, 6:30 am)24% (Mar 16, 3:00 pm)29.53 "Hg (Mar 19, 6:15 pm)
Average68 °F61%29.96 "Hg
* Reported Mar 7 2:00 am — Mar 22 2:00 am, Bahawalpur. Weather by CustomWeather, © 2019

Note: Actual official high and low records may vary slightly from our data, if they occured in-between our weather recording intervals... More about our weather records

Advertising

Bahawalpur Weather History for the Previous 24 Hours

Scroll right to see more
 ConditionsComfort  
Time TempWeatherWind HumidityBarometerVisibility
2:00 am
Fri, Mar 22
68 °FPassing clouds.5 mph69%29.98 "Hg2 mi
1:00 am68 °FPassing clouds.No wind73%29.98 "Hg2 mi
12:30 am68 °FPassing clouds.No wind73%30.01 "Hg2 mi
12:00 am70 °FPassing clouds.No wind69%30.01 "Hg2 mi
11:30 pm
Thu, Mar 21
70 °FPassing clouds.No wind64%30.04 "Hg2 mi
11:00 pm70 °FPassing clouds.No wind64%30.04 "Hg2 mi
10:30 pm72 °FPassing clouds.No wind61%30.01 "Hg2 mi
10:00 pm72 °FPassing clouds.No wind61%29.98 "Hg2 mi
9:30 pm73 °FPassing clouds.No wind61%29.98 "Hg2 mi
9:00 pm75 °FPassing clouds.No wind57%29.98 "Hg2 mi
8:30 pm75 °FPassing clouds.No wind57%29.98 "Hg2 mi
8:00 pm77 °FPassing clouds.No wind44%29.95 "Hg2 mi
7:30 pm77 °FHaze.No wind44%29.95 "Hg2 mi
7:00 pm77 °FHaze.No wind44%29.95 "Hg2 mi
6:30 pm79 °FHaze.5 mph39%29.92 "Hg2 mi
6:00 pm81 °FHaze.5 mph39%29.92 "Hg3 mi
5:30 pm81 °FHaze.7 mph37%29.92 "Hg3 mi
5:00 pm82 °FHaze.No wind32%29.92 "Hg3 mi
4:30 pm82 °FPassing clouds.No wind32%29.92 "Hg4 mi
4:00 pm82 °FPassing clouds.7 mph32%29.92 "Hg4 mi
3:30 pm82 °FPassing clouds.No wind35%29.92 "Hg4 mi
3:00 pm82 °FPassing clouds.7 mph35%29.95 "Hg4 mi
2:30 pm81 °FPassing clouds.No wind34%29.95 "Hg4 mi
2:00 pm81 °FPassing clouds.5 mph34%29.98 "Hg4 mi
1:30 pm81 °FPassing clouds.5 mph34%29.98 "Hg4 mi
1:00 pm81 °FClear.No wind37%29.98 "Hg4 mi
12:30 pm79 °FClear.7 mph39%30.01 "Hg4 mi
12:00 pm77 °FPassing clouds.5 mph44%30.01 "Hg4 mi
11:30 am77 °FPassing clouds.7 mph44%30.04 "Hg4 mi
11:00 am75 °FPassing clouds.5 mph50%30.04 "Hg3 mi
10:30 am73 °FPassing clouds.5 mph53%30.04 "Hg3 mi
10:00 am72 °FClear.5 mph53%30.04 "Hg3 mi
9:30 am68 °FClear.5 mph60%30.01 "Hg3 mi
9:00 am64 °FPassing clouds.No wind73%30.01 "Hg2 mi
8:30 am63 °FPassing clouds.No wind83%30.01 "Hg2 mi
8:00 am59 °FPassing clouds.No wind88%29.98 "Hg2 mi
7:00 am59 °FPassing clouds.No wind88%29.95 "Hg2 mi
6:00 am61 °FClear.No wind83%29.92 "Hg2 mi
5:00 am61 °FClear.No wind83%29.92 "Hg2 mi
Weather by CustomWeather, © 2019

See weather overview